CDT,Max TemperatureF,Mean TemperatureF,Min TemperatureF,Max Dew PointF,MeanDew PointF,Min DewpointF,Max Humidity, Mean Humidity, Min Humidity, Max Sea Level PressureIn, Mean Sea Level PressureIn, Min Sea Level PressureIn, Max VisibilityMiles, Mean VisibilityMiles, Min VisibilityMiles, Max Wind SpeedMPH, Mean Wind SpeedMPH, Max Gust SpeedMPH,PrecipitationIn, CloudCover, Events, WindDirDegrees
2012-10-1,68,56,44,47,37,28,64,45,24,30.01,29.96,29.87,10,10,10,22,8,29,0.00,1,,317
2012-10-2,71,50,30,36,28,23,85,46,17,30.00,29.91,29.81,10,10,5,14,4,22,0.00,0,,183
2012-10-3,76,59,43,40,30,25,57,34,16,29.89,29.85,29.76,10,10,10,13,5,18,0.00,0,,137
2012-10-4,63,50,37,40,32,28,84,65,33,30.18,29.99,29.70,10,9,4,32,19,43,0.00,7,,267
2012-10-5,41,34,29,28,25,24,85,66,51,30.20,30.17,30.15,10,10,10,22,15,31,0.00,5,,285
2012-10-6,44,33,21,30,23,16,86,65,37,30.32,30.25,30.19,10,10,7,12,8,17,0.00,5,Snow,307
2012-10-7,54,36,17,22,17,13,90,51,20,30.23,30.04,29.83,10,10,10,15,5,21,0.00,0,,217
2012-10-8,62,48,34,39,28,17,80,50,33,29.82,29.69,29.57,10,10,10,24,6,31,0.00,4,Rain,208
2012-10-9,45,35,25,35,28,19,80,63,47,30.01,29.84,29.72,10,10,10,23,9,32,0.00,6,,276
2012-10-10,51,36,21,30,23,19,96,59,30,30.09,29.99,29.79,10,10,10,16,6,23,0.00,3,,228
2012-10-11,50,37,23,34,24,14,83,57,27,30.41,30.15,29.81,10,10,10,15,7,23,0.00,2,,337
2012-10-12,51,33,15,24,15,11,87,51,20,30.43,30.27,29.95,10,10,10,17,5,25,0.00,2,,151
2012-10-13,54,45,34,48,41,17,97,76,28,29.94,29.77,29.68,10,7,0,15,8,23,0.00,6,Fog,161
2012-10-14,58,46,34,46,38,30,100,77,44,29.92,29.83,29.76,10,6,0,16,4,21,0.00,5,Fog-Snow,315
2012-10-15,60,42,25,39,33,25,99,66,39,29.95,29.86,29.67,10,9,0,15,5,22,0.00,2,Fog,179
2012-10-16,73,62,51,46,42,39,75,51,31,29.66,29.49,29.35,10,10,10,14,7,22,0.00,1,,154
2012-10-17,58,50,43,49,45,40,91,80,63,29.35,29.23,29.07,10,10,2,24,9,33,0.00,6,Rain,226
2012-10-18,47,44,41,46,42,39,99,93,85,29.39,29.26,29.15,10,7,1,12,6,16,0.06,8,Rain,295
2012-10-19,48,46,43,46,44,42,99,94,88,29.75,29.61,29.40,10,8,2,15,6,21,0.04,8,Rain,322
2012-10-20,50,46,42,44,42,41,98,89,76,29.79,29.76,29.74,10,9,0,12,3,16,0.00,6,Fog,162
2012-10-21,58,50,42,47,44,41,95,80,64,29.93,29.81,29.75,10,9,5,14,7,17,0.00,1,,109
2012-10-22,55,50,45,47,45,44,95,80,66,29.99,29.94,29.87,10,10,7,16,8,25,0.00,5,,44
2012-10-23,59,54,49,59,53,45,99,94,76,29.85,29.75,29.67,10,4,0,13,8,17,0.05,8,Fog-Rain-Thunderstorm,123
2012-10-24,56,48,41,55,46,38,97,90,80,29.90,29.85,29.79,10,8,2,14,6,20,0.03,8,Rain,328
2012-10-25,41,36,32,38,31,25,99,82,66,30.15,29.95,29.80,10,8,1,18,13,28,0.09,8,Rain-Snow-Thunderstorm,307
2012-10-26,36,33,30,26,24,21,83,68,55,30.35,30.30,30.16,10,10,10,20,12,26,0.00,7,,270
2012-10-27,40,30,21,28,23,19,96,71,45,30.34,30.31,30.26,10,10,10,10,1,,0.00,3,,210
2012-10-28,45,38,32,31,27,23,87,67,54,30.31,30.27,30.23,10,10,4,13,6,16,0.00,7,Snow,151
2012-10-29,46,40,34,28,25,23,71,59,43,30.26,30.24,30.21,10,10,10,17,9,24,0.00,5,,125
2012-10-30,45,36,26,31,27,24,92,73,50,30.22,30.16,30.08,10,10,5,10,3,16,0.00,4,,72
2012-10-31,52,36,21,32,26,21,97,72,34,30.09,30.01,29.93,10,8,1,6,1,,0.00,4,,249